Date,TemperatureHighF,TemperatureAvgF,TemperatureLowF,DewpointHighF,DewpointAvgF,DewpointLowF,HumidityHigh,HumidityAvg,HumidityLow,PressureMaxIn,PressureMinIn,WindSpeedMaxMPH,WindSpeedAvgMPH,GustSpeedMaxMPH,PrecipitationSumIn
2013-1-1,19.8,7.6,-2.7,14.9,-5.9,-18.0,81,54,47,30.27,30.03,8,1,8,0.00
2013-1-2,21.2,17.7,14.7,18.2,12.7,10.6,88,81,74,30.09,29.97,6,2,8,0.00
2013-1-3,21.6,15.2,11.3,18.1,5.8,-0.6,87,66,55,30.24,30.06,8,2,9,0.00
2013-1-4,32.9,22.0,14.2,17.5,12.6,8.7,82,68,51,30.15,30.00,8,1,8,0.00
2013-1-5,27.0,19.2,13.5,14.4,10.9,8.4,80,70,55,30.12,29.85,6,2,7,0.00
2013-1-6,25.9,18.1,12.4,14.7,9.0,3.6,83,68,50,30.21,30.00,7,2,7,0.00
2013-1-7,38.1,28.9,17.1,23.3,19.5,10.8,79,68,53,30.06,29.94,11,2,11,0.00
2013-1-8,34.7,28.5,19.8,27.8,22.3,16.0,88,78,62,30.03,29.79,8,2,11,0.00
2013-1-9,35.8,31.0,27.0,26.4,19.3,16.4,82,62,49,30.36,29.91,12,2,17,0.00
2013-1-10,40.8,33.5,27.0,33.8,23.5,17.3,98,68,43,30.33,29.76,8,3,10,0.29
2013-1-11,40.3,37.0,34.5,39.8,36.5,33.8,98,98,98,29.76,29.41,7,2,10,0.04
2013-1-12,39.2,17.2,5.7,38.7,6.8,-7.7,98,64,53,30.09,29.44,14,3,14,0.00
2013-1-13,9.3,6.0,2.8,-4.3,-7.5,-10.4,53,53,53,30.24,30.03,8,2,9,0.00
2013-1-14,14.4,9.0,5.4,-0.1,-5.0,-8.0,53,52,51,30.36,30.21,7,1,9,0.00
2013-1-15,29.3,22.0,10.2,14.0,8.3,-4.3,78,55,46,30.27,29.85,13,2,13,0.00
2013-1-16,36.3,26.4,13.5,32.2,15.1,-5.8,90,64,41,30.24,29.68,16,3,16,0.00
2013-1-17,19.4,13.9,8.6,5.8,-2.7,-10.3,60,47,41,30.39,30.24,7,2,8,0.00
2013-1-18,41.7,29.4,17.2,28.7,20.5,5.8,82,70,54,30.30,29.76,8,2,9,0.00
2013-1-19,38.1,23.6,2.7,30.8,14.4,-10.6,91,69,45,30.21,29.71,23,4,24,0.00
2013-1-20,9.3,3.1,-2.2,-4.3,-10.2,-15.1,53,53,53,30.39,30.21,13,4,13,0.00
2013-1-21,-2.2,-6.0,-10.8,-15.1,-18.7,-23.2,53,53,53,30.33,30.24,13,4,13,0.00
2013-1-22,4.8,-3.3,-11.9,-8.6,-16.2,-24.2,53,53,53,30.39,30.24,7,2,7,0.00
2013-1-23,16.5,6.7,-4.7,3.9,-7.6,-19.4,63,51,47,30.56,30.15,14,3,14,0.00
2013-1-24,12.4,1.9,-6.3,-3.6,-13.3,-20.9,48,48,48,30.65,30.18,7,2,7,0.00
2013-1-25,19.0,13.5,5.4,7.2,-1.4,-10.5,66,51,46,30.30,29.97,16,3,16,0.00
2013-1-26,23.4,13.4,2.3,7.3,-2.7,-13.3,54,48,45,30.33,30.12,8,2,8,0.00
2013-1-27,32.7,28.8,23.0,30.6,20.2,7.3,97,72,50,30.12,29.82,6,2,7,0.00
2013-1-28,35.8,32.5,30.7,34.4,31.5,29.9,98,96,89,29.94,29.68,7,1,7,0.04
2013-1-29,36.5,32.7,27.9,33.7,29.1,20.3,98,87,73,29.76,29.56,11,2,11,0.00
2013-1-30,27.9,17.9,8.6,20.7,8.2,-0.7,74,65,56,29.76,29.68,13,4,13,0.00
2013-1-31,8.6,2.2,-7.1,-0.7,-6.8,-15.9,65,65,65,30.24,29.76,14,5,14,0.00
2013-2-1,5.0,-2.5,-11.2,-4.2,-11.3,-19.7,65,65,65,30.30,30.06,10,2,10,0.00
2013-2-2,13.8,6.8,0.7,4.2,-2.4,-8.3,65,65,65,30.18,30.00,6,2,6,0.00
2013-2-3,17.1,11.0,4.3,3.7,-0.3,-4.9,65,60,49,30.09,29.97,10,2,10,0.00
2013-2-4,18.5,11.8,4.1,1.8,-2.6,-7.7,57,52,45,30.06,29.79,6,2,6,0.00
2013-2-5,32.7,22.2,11.8,24.1,13.2,1.9,92,69,47,30.09,29.68,8,2,8,0.00
2013-2-6,25.9,17.0,7.2,18.4,9.1,-2.4,81,71,64,30.12,29.97,9,2,9,0.00
2013-2-7,27.3,25.5,22.5,22.8,20.4,17.5,91,81,71,30.24,30.00,12,3,12,0.00
2013-2-8,30.2,23.3,17.1,19.0,12.5,8.1,78,64,46,30.39,30.24,6,2,6,0.00
2013-2-9,32.5,28.7,23.7,27.7,24.0,-12.1,92,83,18,30.24,29.97,15,4,15,0.00
2013-2-10,34.0,31.0,28.0,33.2,29.2,24.5,98,93,84,29.97,29.32,11,2,11,0.00
2013-2-11,30.7,25.7,19.2,30.2,18.5,10.8,98,75,57,30.06,29.38,2,2,2,0.00
2013-2-12,39.0,25.9,15.8,22.0,16.0,8.6,79,67,49,30.06,29.82,2,2,2,0.04
2013-2-13,41.2,29.9,20.8,31.8,22.5,15.5,95,75,51,29.82,29.62,2,2,2,0.08
2013-2-14,32.9,26.2,16.0,32.0,14.0,0.3,97,62,42,30.18,29.62,2,0,2,0.00
2013-2-15,21.6,12.9,7.0,2.7,-2.2,-8.0,55,50,43,30.30,30.18,0,0,0,0.00
2013-2-16,23.5,11.9,4.1,5.9,-2.9,-10.8,61,51,45,30.24,30.09,0,0,0,0.00
2013-2-17,32.9,22.1,10.2,18.3,9.0,-3.1,68,57,50,30.12,29.68,0,0,0,0.00
2013-2-18,33.6,24.5,9.5,30.2,15.8,-1.2,87,69,58,29.82,29.56,13,1,13,0.00
2013-2-19,11.3,6.5,2.1,0.5,-4.1,-8.2,61,61,61,30.33,29.82,14,4,14,0.00
2013-2-20,20.5,8.8,-2.2,2.9,-5.3,-12.3,61,52,44,30.44,30.33,6,2,6,0.00
2013-2-21,25.2,16.6,5.9,7.6,0.8,-9.6,58,49,44,30.41,30.12,10,2,10,0.00
2013-2-22,34.7,24.4,19.8,21.5,16.2,7.6,82,71,54,30.12,29.88,11,2,11,0.00
2013-2-23,34.3,26.0,21.2,23.8,18.7,15.6,85,74,58,29.97,29.85,6,1,7,0.05
2013-2-24,41.9,26.5,14.4,23.1,15.8,9.1,81,65,44,30.12,29.97,6,1,6,0.04
2013-2-25,39.4,29.9,23.5,23.9,19.9,17.1,80,67,51,30.12,30.06,4,0,4,0.00
2013-2-26,39.9,29.4,20.3,25.9,21.3,15.4,83,72,54,30.06,29.91,10,2,11,0.00
2013-2-27,39.7,32.3,27.9,25.2,22.3,19.9,77,67,49,30.03,29.88,14,4,14,0.00
2013-2-28,30.7,28.4,23.7,20.2,17.1,11.9,71,62,57,30.24,30.03,9,3,11,0.00
2013-3-1,32.7,25.3,17.8,16.6,11.8,6.6,62,56,47,30.39,30.24,11,3,11,0.00
2013-3-2,34.5,23.0,10.2,14.6,7.4,1.5,75,52,40,30.36,30.18,5,1,5,0.00
2013-3-3,36.1,27.5,19.2,14.0,8.3,4.3,55,44,39,30.18,30.00,9,2,9,0.00
2013-3-4,27.7,25.6,23.5,21.9,13.5,6.0,88,61,40,30.06,29.97,12,3,12,0.00
2013-3-5,33.6,27.2,21.6,24.0,20.7,15.0,91,77,59,30.30,30.00,9,2,9,0.00
2013-3-6,31.6,23.8,16.2,17.9,13.8,9.0,81,66,51,30.41,30.30,7,2,8,0.00
2013-3-7,37.0,24.6,12.7,17.4,12.3,7.2,82,61,42,30.39,30.30,8,2,8,0.04
2013-3-8,37.0,23.9,20.7,22.4,15.4,12.2,80,70,54,30.33,30.30,6,2,8,0.00
2013-3-9,36.5,35.7,34.9,36.0,35.1,34.4,98,98,98,29.88,29.74,5,1,5,0.16
2013-3-10,35.1,33.3,30.2,34.4,29.4,24.0,98,86,77,29.97,29.79,12,4,13,0.04
2013-3-11,30.7,28.1,23.7,24.2,20.3,15.1,80,72,60,29.88,29.76,12,3,12,0.00
2013-3-12,30.9,25.6,22.1,16.4,11.7,6.6,73,56,42,30.18,29.85,13,3,14,0.00
2013-3-13,36.0,26.4,14.2,15.0,10.8,6.5,78,53,37,30.36,30.18,7,2,8,0.00
2013-3-14,42.1,32.4,23.7,26.1,21.2,12.6,88,64,50,30.24,30.03,8,2,8,0.04
2013-3-15,34.7,31.8,24.8,31.1,26.9,21.4,90,82,71,30.03,29.85,7,2,8,0.04
2013-3-16,32.9,23.0,14.2,21.5,10.4,-0.6,87,60,43,30.24,29.91,10,3,10,0.00
2013-3-17,29.8,20.1,7.5,14.2,3.3,-6.0,59,48,41,30.24,29.91,10,3,11,0.00
2013-3-18,29.8,23.2,12.2,26.9,14.0,2.0,92,68,47,29.91,29.65,14,4,15,0.00
2013-3-19,26.8,15.6,7.2,6.0,0.0,-7.5,63,51,40,30.18,29.82,13,5,14,0.00
2013-3-20,24.3,14.7,6.1,4.5,-3.6,-11.1,47,43,40,30.21,30.09,13,4,13,0.05
2013-3-21,29.1,18.9,8.6,8.2,1.2,-7.5,50,46,41,30.12,30.03,5,1,6,0.00
2013-3-22,40.5,27.5,12.7,17.3,9.7,0.8,61,47,36,30.12,30.03,5,1,6,0.00
2013-3-23,41.7,31.3,20.7,18.6,14.1,9.4,62,49,38,30.18,30.09,8,1,8,0.00
2013-3-24,33.6,30.6,28.6,22.0,18.0,15.1,71,59,51,30.12,30.00,11,2,11,0.00
2013-3-25,41.0,32.3,22.6,18.8,15.3,11.6,63,50,39,30.24,30.06,10,3,10,0.00
2013-3-26,32.5,30.5,29.1,17.9,17.3,16.5,62,58,52,30.24,30.24,6,2,6,0.00
2013-4-1,36.1,27.1,18.1,13.6,10.0,6.8,62,49,36,30.27,30.12,14,4,14,0.00
2013-4-2,39.2,29.6,20.3,15.7,11.2,7.6,68,47,31,30.36,30.24,10,2,10,0.00
2013-4-3,48.2,36.6,22.6,26.2,17.7,7.8,60,47,32,30.39,30.09,14,3,14,0.00
2013-4-4,54.3,44.4,34.3,31.8,24.1,16.7,69,45,31,30.18,30.00,12,3,16,0.00
2013-4-5,47.5,35.6,27.0,32.9,21.2,11.7,94,59,33,30.24,29.91,9,3,10,0.04
2013-4-6,53.6,42.1,36.0,38.2,31.7,23.2,92,68,45,29.91,29.56,13,3,13,0.08
2013-4-7,50.2,41.3,34.3,38.3,32.0,29.1,90,70,49,29.97,29.76,6,2,8,0.09
2013-4-8,46.0,41.7,39.2,42.2,39.7,36.2,98,93,82,30.06,29.74,8,2,8,0.66
2013-4-9,43.7,37.8,33.3,36.3,31.0,22.5,97,78,53,30.18,30.00,15,4,15,0.21
2013-4-10,38.8,35.8,30.4,28.7,22.7,18.5,93,60,45,30.21,29.91,14,4,15,0.08
2013-4-11,36.3,33.9,31.1,32.4,28.7,20.2,97,82,55,29.94,29.71,11,3,13,0.08
2013-4-12,37.6,32.2,27.9,31.2,26.9,23.1,96,81,59,29.88,29.71,6,2,7,0.00
2013-4-13,40.3,33.0,28.8,27.5,23.5,19.9,91,69,50,30.00,29.85,8,2,8,0.04
2013-4-14,36.0,32.6,29.8,35.5,27.7,20.5,98,83,63,30.00,29.53,13,3,14,0.00
2013-4-15,39.4,35.9,32.4,35.1,27.5,24.2,98,72,58,30.00,29.59,12,3,12,0.13
2013-4-16,45.3,38.2,33.1,28.5,25.0,22.2,79,60,44,30.36,30.00,11,2,12,0.00
2013-4-17,40.6,36.9,34.0,35.0,28.0,23.8,97,71,59,30.33,29.91,12,2,12,0.12
2013-4-18,34.2,33.1,32.0,33.5,32.3,30.7,98,97,93,29.94,29.56,12,4,14,0.13
2013-4-19,39.7,34.2,29.1,27.9,21.1,13.5,91,60,45,30.00,29.59,11,2,12,0.08
2013-4-20,47.7,34.6,21.7,20.3,13.7,9.6,61,43,29,30.33,30.00,4,1,6,0.25
2013-4-21,48.4,40.3,33.6,46.2,34.0,14.2,98,80,43,30.33,30.03,12,3,14,0.21
2013-4-22,43.9,37.0,32.4,37.6,32.8,27.9,98,86,55,30.21,30.12,13,2,13,0.08
2013-4-23,43.5,36.0,29.7,31.9,25.3,16.5,98,68,41,30.18,30.06,9,2,10,0.37
2013-4-24,54.3,38.9,27.5,32.9,25.7,18.7,86,62,35,30.09,29.91,12,2,14,0.00
2013-4-25,53.6,43.4,32.9,32.9,27.0,23.0,86,56,36,30.21,30.00,9,3,10,0.00
2013-4-26,73.9,59.2,45.0,41.8,34.4,24.2,62,41,26,30.18,30.00,10,3,12,0.00
2013-4-27,78.3,62.1,43.9,43.7,35.1,28.4,58,39,23,30.18,29.97,10,2,11,0.00
2013-4-28,80.8,65.5,53.2,50.7,44.1,25.9,80,49,28,29.97,29.71,12,3,14,0.04
2013-4-29,77.0,63.7,48.9,54.4,44.6,33.3,91,53,29,29.85,29.62,9,2,9,0.05
2013-4-30,71.4,65.7,57.7,57.7,43.3,27.1,78,47,24,30.00,29.47,13,4,14,0.00
2013-5-1,57.7,41.4,34.3,38.0,33.1,27.5,95,75,36,30.44,30.00,10,2,10,0.29
2013-5-2,47.3,39.9,35.2,31.2,25.9,21.4,85,59,41,30.50,30.39,10,3,12,0.04
2013-5-3,38.1,34.5,32.5,32.6,27.9,20.6,91,78,51,30.41,30.15,14,4,14,0.16
2013-5-4,48.6,39.7,33.3,41.0,36.4,30.6,98,88,73,30.21,30.12,9,3,9,0.04
2013-5-5,64.9,50.5,37.9,44.1,39.6,35.0,90,69,45,30.21,30.09,7,2,7,0.00
2013-5-6,78.3,61.7,46.0,47.8,42.5,39.6,83,53,30,30.12,30.06,6,1,6,0.00
2013-5-7,82.6,67.3,52.7,50.2,42.5,36.8,73,44,22,30.09,30.00,8,1,8,0.00
2013-5-8,81.7,66.2,57.4,55.0,47.2,41.7,87,53,29,30.06,30.00,7,1,7,0.17
2013-5-9,58.6,53.0,43.0,55.4,46.7,26.6,90,80,52,30.12,29.97,13,3,13,0.00
2013-5-10,67.3,53.4,36.9,32.1,27.4,23.6,67,40,23,30.12,29.88,6,2,8,0.00
2013-5-11,57.6,47.7,41.2,38.6,23.9,17.9,56,40,29,30.18,29.88,14,4,17,0.04
2013-5-12,59.4,48.0,35.1,24.3,20.2,15.9,50,34,25,30.21,30.09,9,2,11,0.05
2013-5-13,70.0,56.1,39.6,42.6,29.6,16.3,50,37,26,30.12,29.71,14,3,14,0.00
2013-5-14,95.5,74.2,54.0,51.6,42.6,31.4,68,36,15,29.74,29.53,13,3,14,0.00
2013-5-15,78.6,68.1,56.3,44.7,41.8,38.8,56,39,26,29.94,29.74,10,2,12,0.00
2013-5-16,85.1,73.8,60.1,47.2,38.8,29.0,56,30,20,29.97,29.88,11,2,12,0.00
2013-5-17,68.2,59.6,56.1,55.6,48.2,28.5,95,70,23,30.03,29.94,8,3,10,0.20
2013-5-18,78.1,65.3,55.2,65.8,58.6,53.6,98,81,54,30.06,29.85,13,3,13,0.95
2013-5-19,81.7,69.0,63.5,65.5,63.1,57.9,98,83,51,29.85,29.62,12,2,20,2.08
2013-5-20,70.7,65.5,60.3,64.8,60.5,55.0,98,85,62,29.65,29.56,11,3,11,0.00
2013-5-21,61.7,57.2,49.1,60.5,55.9,48.3,98,95,90,29.74,29.59,5,2,7,0.00
2013-5-22,53.1,49.8,46.4,50.9,48.1,44.7,98,94,77,30.00,29.74,10,3,11,0.00
2013-5-23,63.0,53.2,44.2,44.7,36.2,31.1,84,56,33,30.27,30.00,11,3,13,0.00
2013-5-26,59.2,58.3,57.0,44.7,39.6,31.8,61,50,38,30.21,30.06,10,4,11,0.00
2013-5-27,61.2,57.5,55.0,55.0,49.8,44.0,93,76,60,30.06,29.85,10,2,10,1.79
2013-5-28,59.4,56.7,54.0,56.9,54.6,51.8,96,92,90,29.85,29.74,6,1,7,0.00
2013-5-29,75.2,65.6,56.3,70.6,61.5,55.1,98,87,68,29.85,29.71,11,2,11,1.37
2013-5-30,76.1,68.7,64.0,66.3,62.9,52.5,98,83,55,29.74,29.59,10,4,13,0.49
2013-5-31,79.5,67.5,62.2,62.8,57.2,47.6,98,73,40,29.62,29.56,13,3,15,0.50
2013-6-1,71.4,61.4,52.2,60.8,53.2,41.9,88,75,52,29.94,29.62,12,2,12,0.00
2013-6-2,65.1,57.0,49.3,41.9,38.4,35.9,72,52,35,30.09,29.94,9,2,10,0.00
2013-6-3,70.3,61.1,50.4,47.2,41.1,37.4,77,50,33,30.09,29.97,6,1,6,0.00
2013-6-4,63.7,60.1,55.0,53.5,46.8,38.8,90,63,46,30.12,30.00,10,2,12,0.00
2013-6-5,57.9,56.0,54.9,57.4,55.2,52.5,98,97,91,30.09,29.94,8,1,8,0.13
2013-6-6,56.8,53.6,50.5,54.5,52.2,49.8,98,95,87,30.03,29.97,6,2,8,0.00
2013-6-7,63.9,58.0,53.4,54.7,52.2,49.3,98,82,61,30.06,29.94,5,0,5,0.00
2013-6-8,70.5,64.1,56.7,55.0,51.6,48.0,86,65,45,29.97,29.91,8,1,10,0.00
2013-6-9,66.0,60.4,57.0,62.4,57.5,51.6,98,91,66,29.94,29.82,6,2,9,0.50
2013-6-10,72.5,65.1,59.0,64.9,60.9,58.4,98,87,65,29.88,29.82,6,0,6,0.00
2013-6-11,73.9,67.1,59.2,67.3,63.2,58.0,98,88,75,29.94,29.85,5,0,5,0.00
2013-6-12,71.2,66.4,61.0,68.7,61.9,49.1,98,86,54,29.94,29.76,9,2,13,0.37
2013-6-13,73.9,68.1,61.0,51.3,49.2,47.2,61,51,42,30.09,29.94,6,1,6,0.00
2013-6-14,77.4,69.9,61.0,58.8,53.7,46.6,70,57,47,30.09,29.91,10,3,13,0.04
2013-6-15,73.4,68.3,64.6,68.4,64.6,58.4,96,88,70,29.97,29.88,9,1,10,0.33
2013-6-16,82.2,69.9,59.0,63.3,54.3,43.1,98,64,27,30.00,29.88,12,1,16,0.00
2013-6-17,80.8,69.7,61.7,59.7,54.4,50.5,83,60,37,30.03,29.88,8,2,9,0.00
2013-6-18,73.0,66.0,56.8,58.6,52.2,47.1,74,62,46,30.12,30.03,7,2,7,0.00
2013-6-19,82.4,72.7,62.6,59.9,55.5,51.5,73,56,37,30.09,29.97,10,2,10,0.00
2013-6-20,88.7,79.2,69.4,65.2,60.3,56.8,72,54,35,30.03,29.91,10,2,12,0.00
2013-6-21,80.6,72.1,64.8,68.6,64.8,60.3,97,79,50,30.03,29.76,15,2,20,1.54
2013-6-23,79.5,75.7,70.0,70.9,65.6,62.0,93,72,56,29.91,29.79,8,1,10,0.00
2013-6-24,81.3,72.6,65.7,71.7,66.3,63.5,97,82,61,29.94,29.85,8,1,10,0.12
2013-6-25,84.2,75.6,65.8,72.8,67.1,63.3,94,76,55,29.91,29.76,8,2,9,0.00
2013-6-26,84.6,78.6,72.9,76.2,69.9,61.3,96,76,49,29.85,29.74,9,1,9,0.00
2013-6-27,86.4,77.8,70.0,66.2,57.4,48.7,85,53,29,29.85,29.79,11,2,11,0.00
2013-6-28,76.1,71.2,66.2,63.2,58.1,51.9,86,64,44,29.85,29.76,10,3,10,0.00
2013-6-29,73.2,66.6,62.2,64.0,60.8,52.2,98,84,48,29.94,29.76,9,2,9,0.50
2013-7-5,86.4,83.3,77.9,60.3,57.9,54.5,51,42,34,29.88,29.85,10,4,11,0.00
2013-7-6,90.1,80.9,72.5,64.4,60.4,58.0,63,50,39,29.91,29.85,8,3,10,0.00
2013-7-7,90.7,81.0,71.1,70.2,65.4,59.7,92,61,42,29.91,29.85,7,1,8,0.08
2013-7-8,82.9,74.3,65.1,70.2,67.1,63.7,96,80,59,30.00,29.91,7,1,7,0.00
2013-7-9,82.6,77.3,70.3,73.1,68.4,62.0,98,75,58,29.97,29.79,10,2,10,0.50
2013-7-10,78.8,72.8,63.5,62.5,53.5,49.1,77,52,37,30.09,29.94,9,2,10,0.00
2013-7-11,85.3,74.9,63.5,61.4,54.3,48.9,83,52,31,30.12,30.00,7,2,8,0.00
2013-7-12,89.2,78.6,68.0,60.3,56.2,51.3,68,47,33,30.06,29.91,13,4,13,0.00
2013-7-13,78.3,72.7,65.5,72.1,62.9,54.2,98,73,48,30.09,29.94,10,3,12,2.33
2013-7-14,86.0,76.7,70.5,65.6,62.7,59.6,78,63,44,30.18,30.06,8,2,8,0.00
2013-7-15,89.4,79.5,70.3,68.6,64.1,59.4,81,61,38,30.24,30.18,7,1,9,0.00
2013-7-16,92.7,83.5,75.7,72.5,68.7,64.6,85,63,41,30.24,30.18,6,2,6,0.00
2013-7-17,93.2,83.4,75.2,70.3,68.4,64.6,82,62,42,30.24,30.12,6,1,6,0.00
2013-7-18,94.1,84.9,77.5,71.1,68.7,63.1,77,60,41,30.12,29.85,9,2,10,0.00
2013-7-19,82.2,78.6,75.7,57.8,55.4,54.1,53,45,41,29.91,29.85,7,2,8,0.00
2013-7-20,80.6,73.0,67.6,62.3,57.3,51.8,79,59,44,30.00,29.88,7,2,10,0.00
2013-7-21,79.5,70.1,60.1,68.4,58.3,43.6,93,67,47,30.00,29.82,6,1,9,0.08
2013-7-22,85.3,75.1,66.9,72.0,64.1,52.6,92,71,42,29.85,29.71,9,3,10,0.00
2013-7-23,75.7,68.5,62.1,53.9,50.7,47.4,73,54,39,30.03,29.85,8,2,8,0.00
2013-7-24,76.5,68.2,61.9,58.9,52.1,46.4,69,57,44,30.09,29.97,6,1,6,0.00
2013-7-27,60.1,56.9,53.4,53.0,49.4,46.2,84,76,68,30.03,29.94,8,2,11,0.00
2013-7-28,69.8,60.7,52.3,51.2,48.2,45.3,81,65,46,30.09,29.97,6,2,8,0.00
2013-7-29,76.6,67.0,55.6,56.5,51.7,47.9,89,61,39,30.15,30.09,7,1,7,0.00
2013-7-30,70.5,67.5,63.9,63.5,60.9,52.6,88,80,55,30.12,30.06,6,1,6,0.00
2013-7-31,78.4,69.4,63.3,67.5,58.6,45.3,97,72,36,30.09,30.00,9,1,10,0.00
2013-8-1,81.7,70.2,58.8,56.0,51.3,48.0,79,53,33,30.09,29.91,7,1,7,0.00
2013-8-2,76.6,69.2,61.7,57.0,51.0,44.1,76,54,34,30.06,29.91,6,1,9,0.00
2013-8-3,77.4,67.3,57.6,54.6,48.5,44.5,79,53,35,30.21,30.06,8,1,8,0.00
2013-8-4,73.9,66.3,57.4,54.3,50.5,45.4,76,58,42,30.24,30.03,6,1,6,0.00
2013-8-5,76.1,68.0,61.2,67.1,62.2,54.1,98,82,66,30.06,29.82,6,1,8,0.62
2013-8-6,82.8,69.4,59.9,66.0,60.7,56.6,94,76,50,29.88,29.74,7,1,7,0.25
2013-8-7,74.5,66.5,61.3,62.6,54.1,44.9,98,69,37,30.06,29.82,6,2,8,0.00
2013-8-8,78.3,67.0,58.6,59.3,54.0,48.9,83,64,41,30.09,30.00,6,1,6,0.00
2013-8-9,76.1,68.1,61.0,60.4,53.0,44.4,92,62,35,30.12,30.00,7,1,10,0.00
2013-8-10,75.9,67.5,60.4,54.9,50.4,47.2,74,55,40,30.21,30.12,5,1,6,0.00
2013-8-11,76.6,70.0,65.3,63.8,58.9,51.5,81,68,56,30.12,30.03,4,0,6,0.00
2013-8-12,79.9,70.6,62.6,64.2,54.9,47.3,91,61,35,30.12,30.03,6,2,9,0.00
2013-8-13,75.7,66.0,58.5,54.2,47.6,41.3,82,54,33,30.24,30.12,8,1,9,0.00
2013-8-14,76.8,66.7,56.8,54.8,49.0,44.3,80,55,36,30.24,30.12,6,1,6,0.00
2013-8-15,63.5,61.6,59.7,50.3,49.4,48.1,71,64,58,30.15,30.15,0,0,0,0.00
2013-8-16,78.8,72.9,66.7,52.4,50.0,47.8,60,45,37,30.21,30.18,4,1,6,0.00
2013-8-17,84.7,71.6,60.3,57.7,52.1,47.4,82,53,31,30.24,30.12,8,1,10,0.00
2013-8-18,84.7,73.4,63.0,58.2,53.9,51.2,73,52,34,30.18,30.06,8,2,12,0.00
2013-8-19,87.1,76.2,68.4,65.9,61.5,56.1,71,61,46,30.09,29.97,6,2,7,0.00
2013-8-20,91.9,80.4,71.6,70.9,67.4,63.4,78,66,46,29.97,29.91,8,2,9,0.00
2013-8-21,85.8,79.5,73.8,74.6,70.0,60.9,87,73,57,30.06,29.91,8,1,8,0.00
2013-8-22,87.1,76.1,67.3,61.4,50.6,44.8,64,42,28,30.18,30.06,8,2,11,0.00
2013-8-23,88.5,75.6,63.5,64.6,54.4,44.1,70,48,35,30.21,30.09,7,2,10,0.00
2013-8-24,91.2,80.0,71.2,70.2,66.6,62.5,78,65,45,30.15,30.00,13,4,13,0.00
2013-8-25,97.5,86.5,78.6,73.1,70.2,67.9,73,60,40,30.09,30.03,8,3,10,0.00
2013-8-26,97.5,86.8,78.4,74.5,72.3,67.8,83,64,40,30.06,29.91,8,2,8,0.00
2013-8-27,95.5,84.8,78.6,77.1,73.1,70.5,78,68,50,29.97,29.85,7,2,7,0.00
2013-8-28,94.1,81.4,72.5,74.1,68.2,58.3,91,67,34,30.03,29.94,6,1,6,0.00
2013-8-29,93.0,81.8,71.4,79.0,70.8,63.2,98,72,40,30.03,29.85,10,2,10,1.84
2013-8-30,83.1,77.0,72.1,70.9,65.6,60.2,86,69,53,29.94,29.85,8,2,10,0.00
2013-8-31,88.2,75.6,66.4,69.3,63.8,60.6,88,69,44,29.94,29.76,8,1,8,0.00
2013-9-1,72.0,69.1,63.0,64.6,58.4,51.2,83,69,56,30.03,29.79,7,2,8,0.00
2013-9-2,66.4,60.8,56.5,52.0,50.3,48.6,80,69,56,30.15,30.03,7,1,8,0.00
2013-9-3,76.6,64.5,54.1,56.4,53.2,50.4,92,69,42,30.15,30.03,6,1,6,0.00
2013-9-4,86.4,72.1,62.1,66.5,59.2,54.2,89,66,43,30.18,30.03,6,1,8,0.00
2013-9-5,83.5,72.5,62.6,64.9,56.7,50.3,76,58,40,30.24,30.12,8,2,8,0.00
2013-9-6,91.4,79.5,70.2,69.2,63.5,55.3,92,62,30,30.12,29.91,10,3,10,0.00
2013-9-7,93.2,79.9,71.6,71.0,64.5,58.7,83,61,38,30.03,29.91,10,2,10,0.00
2013-9-8,75.0,70.3,65.8,64.2,58.5,52.9,79,66,57,30.06,29.91,8,2,9,0.00
2013-9-9,90.5,78.0,69.8,73.7,68.0,63.7,94,73,45,29.91,29.65,9,2,11,0.00
2013-9-10,78.3,74.1,69.8,72.0,64.3,58.0,86,72,59,30.03,29.76,6,1,6,0.00
2013-9-11,86.5,74.2,65.7,65.2,54.8,45.1,86,55,30,30.09,30.03,8,1,9,0.00
2013-9-12,70.0,66.5,63.0,48.1,46.5,44.9,58,49,41,30.15,30.09,5,2,7,0.00
2013-9-14,67.6,60.5,56.5,55.8,53.4,47.3,97,79,48,30.00,29.94,6,1,6,0.24
2013-9-15,63.9,58.3,51.6,58.4,54.1,44.1,98,87,69,30.30,29.91,8,2,9,0.21
2013-9-16,67.6,56.2,44.8,46.6,39.8,31.2,87,58,28,30.39,30.27,6,2,9,0.00
2013-9-17,68.9,58.4,50.4,58.8,48.8,38.2,98,72,52,30.27,29.97,11,4,15,0.04
2013-9-18,72.5,66.8,59.4,70.4,65.4,58.8,98,95,89,29.97,29.76,12,2,12,0.21
2013-9-19,76.1,70.7,65.5,72.3,67.2,59.5,98,89,71,29.82,29.71,8,2,9,0.21
2013-9-20,65.5,59.5,52.3,59.5,51.8,44.8,87,76,51,29.94,29.79,8,2,8,0.00
2013-9-21,61.5,54.6,48.7,48.6,46.1,43.3,92,74,52,30.00,29.91,5,1,6,0.00
2013-9-22,71.2,60.2,48.9,52.6,48.4,42.6,84,67,47,30.00,29.91,13,2,13,0.00
2013-9-23,73.4,63.8,54.7,51.9,49.1,46.9,80,60,41,30.00,29.91,14,3,14,0.00
2013-9-24,77.2,64.8,54.7,53.0,49.2,46.7,81,59,39,30.00,29.97,7,2,9,0.00
2013-9-25,75.2,64.3,55.0,55.3,50.1,46.0,88,62,41,30.00,29.91,8,2,10,0.00
2013-9-26,81.0,69.3,57.6,59.0,54.0,50.1,76,60,42,29.94,29.85,14,4,14,0.00
2013-9-27,83.3,73.6,66.2,62.7,58.7,55.9,74,61,40,29.94,29.82,16,4,16,0.00
2013-9-28,72.9,62.6,51.8,64.8,54.3,45.7,94,75,57,29.97,29.68,11,3,13,0.12
2013-9-29,75.7,62.1,48.2,48.0,43.5,39.9,84,55,29,29.97,29.82,14,3,14,0.00
2013-9-30,78.3,68.2,59.2,50.3,45.9,42.0,60,46,33,29.82,29.65,10,4,13,0.00
2013-10-1,76.5,68.2,57.2,51.1,40.8,31.4,60,39,22,30.00,29.65,10,2,10,0.00
2013-10-2,75.0,62.0,49.8,56.5,41.1,34.3,97,51,24,30.06,29.85,10,2,14,0.25
2013-10-3,59.9,58.2,56.1,58.9,57.3,55.4,98,97,94,29.94,29.85,8,2,9,0.00
2013-10-4,58.5,56.9,55.4,57.4,55.7,54.4,98,96,90,30.00,29.85,11,3,13,0.08
2013-10-5,60.1,55.7,47.1,59.5,53.4,44.9,98,92,81,29.91,29.74,8,1,10,0.17
2013-10-6,54.3,48.2,43.3,52.3,47.2,42.4,98,96,90,29.85,29.71,9,1,9,0.00
2013-10-7,65.1,53.5,43.7,52.3,44.3,38.9,98,75,42,30.00,29.82,5,1,6,0.00
2013-10-8,76.1,63.7,51.6,46.3,42.2,39.6,71,48,31,30.00,29.85,12,4,22,0.00
2013-10-9,76.1,66.5,58.1,50.5,46.3,43.2,68,49,34,30.06,29.94,10,4,11,0.00
2013-10-10,77.5,64.8,53.8,51.3,45.9,43.3,69,52,32,30.06,29.91,10,3,12,0.00
2013-10-11,73.9,67.9,58.6,58.9,52.0,48.8,84,58,44,29.91,29.68,13,5,15,0.04
2013-10-12,61.2,52.5,47.1,56.6,42.8,38.5,85,70,55,30.15,29.74,7,2,11,0.00
2013-10-13,61.7,50.5,41.7,41.7,36.1,31.2,85,60,36,30.41,30.15,5,1,6,0.00
2013-10-14,55.0,50.0,43.5,46.7,37.2,33.5,89,62,45,30.39,29.97,11,2,11,0.00
2013-10-15,54.0,50.0,46.8,53.4,49.4,46.2,98,98,89,29.97,29.71,8,2,10,0.00
2013-10-16,46.8,44.3,41.7,46.2,41.4,38.3,98,90,77,29.91,29.85,9,1,9,0.00
2013-10-17,58.6,47.2,40.6,46.2,40.0,35.9,98,78,46,29.88,29.76,6,1,8,0.00
2013-10-18,52.7,44.5,39.0,43.4,35.7,27.4,98,74,41,29.97,29.85,9,2,9,0.00
2013-10-19,45.5,40.4,36.3,40.2,35.6,32.3,91,83,70,29.85,29.68,6,1,6,0.00
2013-10-20,43.7,37.7,33.6,40.8,35.1,31.0,98,90,84,29.88,29.62,7,2,10,0.00
2013-10-21,38.1,35.2,32.5,33.2,22.0,18.5,83,59,49,29.97,29.88,8,2,8,0.00
2013-10-22,39.4,34.7,29.1,31.5,27.0,22.1,85,74,61,30.03,29.94,7,1,7,0.00
2013-10-23,37.8,35.2,33.8,31.9,24.3,17.2,88,65,50,30.09,30.00,8,2,8,0.00
2013-10-24,43.5,37.7,33.3,30.3,23.7,17.6,73,57,48,30.30,30.09,10,2,10,0.00
2013-10-25,56.7,45.2,30.6,39.7,31.5,25.1,81,60,44,30.30,29.79,11,2,13,0.00
2013-10-26,52.2,43.8,37.0,39.4,27.1,0.0,65,52,43,30.12,29.79,11,3,12,0.00
2013-10-27,57.0,44.0,32.5,31.7,27.5,24.3,75,54,37,30.15,29.85,8,2,9,0.00
2013-10-28,45.5,38.3,32.7,26.7,21.3,16.4,68,51,38,30.41,30.15,11,2,12,0.00
2013-10-29,40.8,37.6,32.5,34.9,25.3,17.6,82,61,52,30.39,30.12,9,2,9,0.00
2013-10-30,50.4,45.3,39.7,49.8,44.1,34.9,98,96,82,30.12,29.71,5,1,7,0.04
2013-10-31,50.4,44.0,40.3,49.8,43.1,38.5,98,97,91,29.71,29.44,7,1,7,0.00
2013-11-1,51.3,43.3,38.1,39.9,35.8,29.5,97,77,51,29.88,29.44,8,2,8,0.00
2013-11-2,49.6,40.8,33.8,35.3,29.4,26.5,80,65,43,30.12,29.88,8,1,8,0.00
2013-11-3,55.2,45.8,37.2,32.3,29.4,26.5,74,54,38,30.12,29.91,20,4,20,0.00
2013-11-4,48.7,44.9,36.7,46.2,36.5,29.9,97,74,48,30.15,29.85,13,3,15,0.04
2013-11-5,45.3,37.2,32.4,36.9,31.2,25.2,97,81,51,30.24,30.03,7,1,8,0.00
2013-11-6,38.3,34.1,31.1,32.8,27.6,22.2,98,78,55,30.18,30.03,6,1,7,0.00
2013-11-7,36.1,30.6,26.6,30.4,26.7,23.3,94,85,76,30.21,30.15,5,1,6,0.00
2013-11-8,44.6,35.9,25.7,38.2,27.4,23.4,94,73,49,30.18,29.65,12,2,14,0.00
2013-11-9,44.6,41.1,36.7,39.1,30.4,22.1,83,66,50,30.21,29.68,14,4,19,0.00
2013-11-10,45.9,38.5,32.9,29.0,25.7,22.5,69,60,47,30.33,30.12,10,2,10,0.00
2013-11-11,38.7,25.3,16.2,29.4,10.1,3.6,73,52,42,30.68,30.12,10,3,13,0.00
2013-11-12,28.2,20.6,12.9,9.4,5.6,2.4,63,52,41,30.71,30.41,6,2,8,0.00
2013-11-13,48.4,36.4,22.5,30.3,20.1,8.7,60,52,40,30.44,29.91,13,3,14,0.00
2013-11-14,38.8,36.4,35.1,29.7,26.7,25.0,78,68,60,29.91,29.88,4,1,5,0.00
2013-11-15,55.8,43.5,31.1,38.9,33.7,28.1,91,70,45,29.91,29.71,10,2,11,0.00
2013-11-16,48.7,45.2,42.3,48.2,42.3,32.5,98,90,64,29.74,29.29,9,2,11,0.04
2013-11-17,44.2,40.0,32.7,43.7,34.9,21.5,98,83,63,29.82,29.35,15,3,15,0.00
2013-11-18,34.2,29.9,25.3,23.2,17.2,14.9,68,59,50,30.27,29.82,13,3,13,0.00
2013-11-19,45.5,35.7,24.3,26.6,22.2,16.3,78,59,44,30.27,29.94,15,4,15,0.00
2013-11-20,43.5,41.0,37.0,34.0,26.8,21.3,88,58,42,30.06,29.91,13,4,13,0.00
2013-11-21,38.5,31.7,24.6,37.4,26.7,12.0,97,82,51,30.47,30.03,10,2,12,0.00
2013-11-22,32.5,23.4,13.5,12.6,8.6,-1.4,68,54,35,30.59,30.41,11,2,16,0.00
2013-11-23,17.1,12.3,7.3,0.4,-3.9,-7.0,53,48,41,30.77,30.59,9,2,10,0.00
2013-11-24,30.0,20.2,9.7,12.2,2.7,-7.4,54,46,42,30.65,30.00,16,4,16,0.00
2013-11-25,38.5,33.2,27.5,25.8,19.3,12.2,71,56,50,30.12,29.91,13,3,14,0.00
2013-11-26,30.0,20.7,14.2,16.0,3.6,-1.2,58,47,42,30.36,30.12,12,4,13,0.00
2013-11-27,24.3,18.1,9.5,6.7,2.4,-3.8,63,50,44,30.36,30.09,8,2,8,0.00
2013-11-28,28.0,22.5,15.4,10.6,7.0,3.5,59,51,45,30.50,30.09,11,2,11,0.00
2013-11-29,32.7,24.3,13.8,17.7,11.4,3.2,68,58,45,30.50,30.15,0,0,0,0.00
2013-11-30,39.4,31.8,25.2,25.0,20.7,16.5,77,63,52,30.21,30.06,0,0,0,0.00
2013-12-1,35.4,27.8,21.4,24.9,19.5,15.6,80,71,59,30.24,30.06,0,0,0,0.00
2013-12-2,34.9,34.3,33.8,34.4,33.8,33.3,98,98,98,31.83,28.73,10,3,10,0.09
2013-12-3,35.1,34.1,31.8,34.5,33.6,31.1,98,98,98,31.98,31.80,8,1,9,0.08
2013-12-4,32.0,28.3,15.6,31.5,27.0,8.9,98,95,75,31.98,31.65,11,2,16,0.00
2013-12-5,15.4,7.0,0.7,9.4,1.1,-5.3,77,76,75,32.45,31.89,13,3,13,0.00
2013-12-6,7.0,-0.5,-6.3,0.9,-6.3,-11.9,76,76,76,32.75,32.45,8,3,10,0.00
2013-12-7,5.0,-3.1,-9.4,-0.9,-8.8,-14.9,76,76,76,32.84,32.69,6,1,7,0.00
2013-12-8,12.9,7.3,-0.9,6.8,1.3,-6.7,76,76,76,32.69,32.19,6,1,7,0.00
2013-12-9,11.3,5.4,-2.2,5.2,-0.5,-7.9,76,76,76,32.27,32.07,11,2,13,0.00
2013-12-10,11.5,6.6,1.2,5.4,0.6,-4.6,76,76,76,32.42,31.95,10,2,11,0.00
2013-12-11,4.5,0.1,-2.6,-1.4,-5.6,-9.1,76,76,76,32.54,32.42,8,3,10,0.00
2013-12-12,21.2,16.2,9.7,7.6,5.7,3.0,76,63,53,32.48,32.33,4,1,5,0.00
2013-12-13,19.2,13.8,10.6,8.5,3.7,-0.7,73,63,56,32.48,32.33,10,3,10,0.00
2013-12-14,17.4,10.2,0.7,6.5,-0.5,-9.4,68,61,58,32.48,32.27,10,2,13,0.00
2013-12-15,5.4,1.1,-1.1,-4.8,-8.9,-11.0,62,62,62,32.36,30.12,6,2,11,0.00
2013-12-16,20.1,9.2,0.7,17.7,1.0,-9.3,90,69,62,30.15,29.97,6,2,6,0.00
2013-12-17,31.3,22.7,10.8,27.6,13.5,0.5,96,68,53,30.12,29.91,12,4,15,0.00
2013-12-18,34.2,24.0,10.4,24.9,14.8,0.3,83,68,57,30.09,29.74,8,2,10,0.00
2013-12-19,27.3,18.6,16.0,20.5,10.1,4.5,80,69,55,30.12,29.85,8,3,10,0.00
2013-12-20,19.8,17.3,13.8,11.8,10.5,8.8,81,75,65,30.06,29.88,6,2,8,0.00
2013-12-21,24.1,19.6,15.8,13.5,12.1,9.6,76,72,62,30.03,29.91,8,2,8,0.00
2013-12-22,21.2,15.6,7.7,15.2,9.0,0.9,83,75,67,30.24,30.00,10,2,10,0.00
2013-12-23,7.7,0.8,-3.8,0.9,-5.9,-10.3,73,73,73,30.50,30.24,8,3,10,0.00
2013-12-24,10.0,1.3,-10.7,3.1,-5.3,-16.9,73,73,73,30.47,30.15,9,2,9,0.00
2013-12-25,26.8,16.1,9.0,19.8,8.9,2.1,83,73,61,30.18,30.06,9,2,10,0.00
2013-12-26,27.9,20.3,12.6,20.0,14.2,6.4,86,77,70,30.21,30.12,4,1,5,0.00
2013-12-27,39.9,28.4,16.3,29.0,23.7,13.3,97,83,58,30.21,29.94,7,1,8,0.08
2013-12-28,45.0,31.7,21.9,31.6,27.1,17.2,98,85,55,30.00,29.71,14,2,17,0.17
2013-12-29,21.6,1.0,-9.6,17.5,-6.6,-17.0,84,69,69,30.30,30.00,12,3,12,0.00
2013-12-30,2.8,-3.2,-10.1,-5.0,-10.8,-17.5,69,69,69,30.27,30.18,5,1,5,0.00
2013-12-31,0.7,-4.4,-8.7,-7.1,-12.0,-16.1,69,69,69,30.41,30.21,7,2,7,0.00
2014-1-1,2.8,-2.6,-8.5,-5.0,-10.3,-15.9,69,69,69,30.47,30.41,7,2,8,0.00
2014-1-2,5.5,-3.1,-10.1,-2.4,-10.7,-17.5,69,69,69,30.50,30.39,6,2,7,0.00